Вернуться в каталог

FENGYUN 1C DEB

АктивенPO
NORAD 38173·DEBRIS·🇨🇳 China

Запущен May 10, 1999 с Taiyuan Satellite Launch Center

Loading…

Ближайшие Пролёты (ближайшие 24 часа)

TLE

УстаревающийSource: Space-Track

Эпоха: Sep 10, 2026, 00:27 UTC

1 38173U 99025ERW 26253.01909054  .00003564  00000-0  10057-2 0  9996
2 38173  98.9860 171.1300 0160149  34.4503 326.6941 14.39126162645435

Отслеживайте FENGYUN 1C DEB в реальном времени с AllMySat

Download on the App Store